User: anonymous   Login
Location: Oberwangen
(47.4286°N, 8.9679°E)
Time: 11:52:44
(UTC+00:00)
Language:

Cosmos 1452 Rocket - Orbit

View from above orbital plane
View from above orbital plane
View from above satellite
View from above satellite

Ground track
Ground track

The orbit data is extracted from the following two-line orbital elements,

1 13992U 83031B   21260.64671190  .00000037  00000-0  21529-4 0  9997
2 13992  74.0539  37.5604 0005354 342.5832  17.5136 14.36240305 11534
Epoch (UTC): 17 September 2021 15:31:15
Eccentricity: 0.0005354
inclination: 74.0539°
perigee height: 767 km
apogee height: 775 km
right ascension of ascending node: 37.5604°
argument of perigee: 342.5832°
revolutions per day: 14.36240305
mean anomaly at epoch: 17.5136°
orbit number at epoch: 1153

The dashed part of the orbit path shows where the satellite is in the earth's shadow,  

DLR